This is the latest recevied weather packets stored in our database for station/object K5NWZ. If no packets are shown the sender has not sent any weather packets the latest 10 day(s).
| Time | Temp. | Humidity | Pressure | Rain* | Wind** | Luminosity | Snow |
|---|---|---|---|---|---|---|---|
| 1788010645 | 22.22° C | 54% | 1027.6 hPa | 0 mm | - | 59 W/m² | - |
| 1788010344 | 22.22° C | 56% | 1027.6 hPa | 0 mm | - | 57 W/m² | - |
| 1788010043 | 22.22° C | 56% | 1027.6 hPa | 0 mm | - | 50 W/m² | - |
| 1788009739 | 22.22° C | 58% | 1027.5 hPa | 0 mm | - | 58 W/m² | - |
| 1788009436 | 22.22° C | 57% | 1027.4 hPa | 0 mm | - | 49 W/m² | - |
| 1788009131 | 22.22° C | 55% | 1027.5 hPa | 0 mm | - | 61 W/m² | - |
| 1788008827 | 21.11° C | 56% | 1027.6 hPa | 0 mm | - | 48 W/m² | - |
| 1788008521 | 20.56° C | 57% | 1027.5 hPa | 0 mm | - | 27 W/m² | - |
| 1788008218 | 20.56° C | 58% | 1027.5 hPa | 0 mm | - | 24 W/m² | - |
| 1788007916 | 20.56° C | 59% | 1027.4 hPa | 0 mm | - | 21 W/m² | - |
| 1788007615 | 20.56° C | 56% | 1027.3 hPa | 0 mm | - | 16 W/m² | - |
| 1788007310 | 20.56° C | 56% | 1027.4 hPa | 0 mm | - | 12 W/m² | - |
| 1788007005 | 20.56° C | 55% | 1027.5 hPa | 0 mm | - | 7 W/m² | - |
| 1788006705 | 20.56° C | 55% | 1027.3 hPa | 0 mm | - | 3 W/m² | - |
| 1788006405 | 20.56° C | 55% | 1027.4 hPa | 0 mm | - | 2 W/m² | - |
| 1788006099 | 20° C | 57% | 1027.3 hPa | 0 mm | - | 1 W/m² | - |
| 1788005798 | 20° C | 55% | 1027.4 hPa | 0 mm | - | 0 W/m² | - |
| 1788005493 | 20.56° C | 55% | 1027.4 hPa | 0 mm | - | 0 W/m² | - |
| 1788005192 | 20.56° C | 53% | 1027.2 hPa | 0 mm | - | 0 W/m² | - |
| 1788004886 | 20.56° C | 55% | 1027.3 hPa | 0 mm | - | 0 W/m² | - |
| 1788004586 | 20.56° C | 54% | 1027.2 hPa | 0 mm | - | 0 W/m² | - |
| 1788004281 | 20° C | 54% | 1027.3 hPa | 0 mm | - | 0 W/m² | - |
| 1788003980 | 20.56° C | 56% | 1027.2 hPa | 0 mm | - | 0 W/m² | - |
| 1788003678 | 20.56° C | 57% | 1027 hPa | 0 mm | - | 0 W/m² | - |
| 1788003373 | 20.56° C | 55% | 1027.2 hPa | 0 mm | - | 0 W/m² | - |
* Rain latest hour (hover to see other rain measurements)
** Current wind speed in m/s (hover to see current wind gust speed)